Wind_Speed
4 4 4 4 4 3 3 4 4 5 6 6 6 6 6 6 8 6 3 3 6 11 12 7 5 1 1 3 4 1 1 2 3 3 3 9 6 8 3 15 3 1 6 13 23
5 4 4 4 4 3 3 3 3 4 4 5 6 7 7 9 4 1 6 8 8 8 11 9 4 1 1 1 2 2 1 1 2 3 2 12 9 11 5 14 4 7 13 22 24
5 5 4 4 4 4 4 4 4 4 4 5 6 7 8 5 4 5 7 10 8 8 9 7 4 2 3 1 1 1 2 0 1 5 1 12 9 10 8 9 8 16 25 23 25
6 5 5 5 5 4 4 4 5 5 5 5 6 7 7 3 3 5 10 8 7 6 7 6 5 1 2 3 1 3 5 4 1 8 7 12 10 6 13 2 5 18 28 26 23
7 7 6 6 5 5 5 5 5 5 5 5 5 7 5 2 4 7 9 9 9 8 5 5 4 2 4 5 3 3 4 3 4 4 3 11 12 6 12 2 11 22 26 27 23
8 7 7 7 6 6 5 5 5 5 5 5 5 6 4 1 2 5 12 10 11 10 7 5 3 5 2 5 2 9 10 10 4 9 8 12 8 8 7 11 17 24 26 24 25
9 8 8 8 7 7 6 5 5 6 5 5 6 6 5 3 3 5 10 9 7 10 5 5 7 5 9 6 4 9 4 1 2 6 5 10 5 12 10 17 21 23 22 23 24
10 9 8 8 8 7 7 6 6 6 6 6 6 7 3 3 4 5 9 10 9 6 6 2 7 7 3 8 5 2 3 5 4 5 4 6 10 11 16 21 21 23 23 24 23
11 11 10 9 7 7 7 6 6 6 6 6 6 4 2 2 5 5 8 5 7 6 5 5 5 3 4 5 1 4 4 7 3 8 4 9 10 3 18 20 20 25 25 25 24
11 11 11 10 9 6 5 5 5 6 7 7 8 4 6 2 1 6 12 9 4 5 2 1 1 1 1 3 5 8 4 3 7 4 9 10 16 3 14 19 21 22 24 25 26
11 11 11 10 8 7 4 2 4 4 7 6 2 2 6 3 3 3 12 13 6 3 2 2 3 4 5 5 6 6 4 2 9 4 5 13 16 8 12 17 20 22 25 25 27
12 11 11 10 9 5 2 2 4 1 6 10 18 18 14 6 2 4 11 9 6 5 4 3 8 8 6 9 7 3 3 5 1 3 5 8 14 11 14 22 25 26 27 28 27
13 11 10 9 7 0 5 5 1 7 3 5 10 13 17 13 9 9 14 8 5 7 9 9 3 6 7 5 7 3 3 9 6 1 2 4 9 7 8 19 19 27 26 28 30
14 12 9 7 1 2 5 6 5 2 2 3 3 3 11 10 6 15 16 8 6 7 7 6 2 6 3 4 2 5 3 10 14 4 4 1 6 6 5 13 16 24 28 32 32
14 12 8 5 4 4 6 4 2 4 3 2 2 1 7 10 7 12 19 12 11 9 5 4 6 4 6 3 2 4 7 7 4 3 3 4 4 6 3 11 15 21 27 31 33
14 13 9 6 5 7 5 1 4 1 4 2 3 3 5 6 4 6 8 6 5 6 5 7 1 3 3 4 9 12 4 2 3 3 4 1 5 7 7 7 4 4 12 25 29
13 13 9 5 4 9 5 9 2 3 3 2 1 2 3 6 8 5 6 9 9 6 10 8 13 4 8 9 4 5 5 4 5 5 8 1 5 10 12 12 10 12 10 9 18
13 11 8 6 9 10 8 2 4 1 4 2 3 1 4 5 4 11 6 7 3 3 2 5 10 5 5 12 11 7 4 6 8 9 12 2 6 6 7 5 8 9 5 5 6
12 8 5 8 13 13 8 4 3 4 2 5 2 4 2 2 2 5 13 12 7 11 10 5 8 3 6 2 5 5 6 2 2 2 3 3 6 12 10 9 10 5 4 5 7
10 3 3 7 14 16 3 4 2 3 3 2 2 1 3 5 1 2 8 6 12 16 18 9 11 11 14 2 1 7 8 3 1 3 6 4 4 8 12 12 6 2 2 5 6
6 3 5 8 17 8 6 5 4 6 4 3 0 3 2 4 1 2 4 4 6 2 15 13 9 20 4 8 9 4 4 2 2 2 5 6 4 5 8 7 8 5 2 5 4
2 2 10 10 3 1 3 4 2 1 4 4 3 6 6 4 4 4 7 7 10 10 9 9 5 13 22 10 5 8 11 9 5 5 3 3 6 2 5 4 6 3 4 3 4
3 4 8 3 2 2 2 2 3 2 2 1 3 5 2 3 3 6 5 4 9 9 9 9 6 6 5 4 3 7 9 8 5 2 8 5 6 4 3 4 5 5 4 4 4
2 2 2 1 3 2 2 1 1 3 5 5 4 3 3 5 7 6 4 2 4 5 7 13 5 6 10 4 2 5 7 12 12 5 7 10 12 12 7 9 11 8 6 8 7
4 2 1 2 1 1 2 2 1 2 3 2 2 8 7 5 3 6 6 9 8 5 4 6 6 4 9 7 5 8 9 14 13 10 8 9 7 13 3 8 7 8 9 10 9
3 3 2 1 2 2 1 3 3 1 2 1 3 11 6 7 9 5 7 4 6 2 6 5 4 5 3 4 0 2 7 11 12 7 12 9 12 2 4 4 8 9 9 9 10
11 6 3 2 1 3 2 1 2 2 5 9 6 8 5 2 11 19 16 17 9 4 3 3 5 4 10 4 4 6 8 12 7 8 8 9 7 5 3 8 13 13 11 11 10
Wind_Direction
19 2 342 338 344 337 334 333 331 340 340 344 347 342 338 326 310 283 269 174 180 179 172 160 154 115 26 43 35 58 99 137 139 170 112 172 157 152 131 145 143 113 155 165 159
14 357 342 338 340 325 326 318 321 324 332 341 343 344 344 337 352 126 163 148 131 170 184 186 174 66 38 44 28 5 54 217 189 169 178 173 184 154 146 167 124 104 140 156 159
5 352 340 336 332 322 315 315 315 321 335 345 345 347 351 4 83 65 155 159 151 103 127 176 205 3 1 353 66 86 316 20 252 193 129 162 167 168 160 201 206 167 156 161 166
358 351 339 333 331 323 312 308 306 314 331 340 347 345 1 43 87 108 154 147 173 171 127 147 157 37 359 2 317 301 244 241 185 172 147 170 165 186 189 200 223 175 167 165 172
358 347 339 329 322 313 304 300 299 304 320 331 339 349 13 19 95 159 182 170 177 181 161 129 76 6 1 329 289 244 314 318 239 145 162 158 186 197 212 277 159 161 169 172 177
358 348 337 330 323 315 306 298 294 294 307 318 329 343 344 222 154 146 196 192 193 184 188 147 99 349 311 325 276 317 299 300 245 218 196 178 195 189 186 163 158 167 176 182 184
355 349 341 331 323 316 308 297 289 287 291 303 313 322 289 263 185 143 180 206 208 214 238 269 303 341 322 303 327 299 318 336 82 166 172 160 188 222 179 173 169 178 182 189 193
347 344 340 333 325 313 304 296 287 286 291 301 308 316 272 227 216 191 174 199 215 227 241 297 322 314 292 308 322 318 61 347 18 150 144 221 265 208 182 179 184 184 188 194 201
339 339 339 338 331 312 301 290 279 276 276 280 290 303 250 288 223 194 181 185 221 229 235 257 332 337 328 336 22 42 353 334 303 205 165 217 277 170 186 194 190 191 194 199 201
333 333 335 335 331 316 296 278 279 282 279 280 266 286 247 114 131 209 189 183 143 150 173 189 188 288 254 343 16 335 329 298 286 198 214 231 256 234 195 204 208 199 199 205 206
329 329 330 332 324 313 291 253 271 271 239 225 154 198 133 135 107 175 189 181 140 137 181 167 259 285 292 265 299 293 257 290 286 275 259 248 264 259 210 214 216 209 206 208 217
325 328 326 327 324 304 247 148 108 15 300 251 246 246 235 224 325 185 180 171 178 203 166 190 260 258 257 282 268 279 353 6 227 335 215 295 277 262 220 227 222 215 213 216 219
320 323 323 325 327 95 173 165 49 349 285 274 235 238 238 233 220 219 185 185 187 198 209 235 205 164 245 275 309 334 357 352 338 344 158 291 277 251 235 239 237 230 223 223 222
313 315 318 322 325 330 166 171 310 297 322 271 228 214 197 186 239 225 209 183 190 225 186 239 255 211 177 327 324 327 336 334 316 304 308 268 296 285 268 262 236 238 226 226 224
313 310 310 299 289 160 162 300 289 139 315 102 173 172 181 190 138 200 201 200 214 198 196 197 186 190 315 303 227 299 358 342 345 200 273 185 252 286 321 281 257 246 233 232 227
316 306 301 286 241 187 191 143 127 218 251 17 146 166 155 215 197 128 178 208 205 183 220 257 233 275 259 254 259 291 280 100 82 201 250 304 241 283 263 246 296 295 256 242 230
316 304 294 265 190 185 175 148 180 220 350 27 48 187 212 188 212 182 170 192 203 195 237 267 263 249 226 258 222 205 246 268 246 241 301 356 217 256 265 254 275 293 284 264 234
317 301 281 231 200 186 168 173 217 219 254 332 345 99 211 175 223 202 172 194 204 165 160 249 262 229 177 225 245 201 232 254 278 282 311 162 237 260 262 271 264 267 277 318 271
324 307 258 205 195 178 171 201 230 210 314 332 332 62 42 107 279 203 220 234 210 188 223 204 253 265 234 193 203 157 204 320 185 104 255 214 261 277 274 270 262 285 272 306 319
336 305 192 191 182 176 177 225 239 231 313 337 48 41 42 339 343 207 193 215 232 203 214 227 265 258 277 229 189 242 143 198 226 237 271 235 272 279 297 304 345 254 247 1 353
350 128 356 161 156 165 207 217 243 248 259 342 92 325 290 308 259 240 225 239 214 162 214 225 236 259 249 225 211 156 202 179 243 220 281 287 275 228 265 310 316 320 89 38 29
53 113 135 139 122 41 168 192 242 265 199 268 252 243 244 254 252 242 233 245 174 155 170 201 223 249 245 260 266 254 244 208 264 220 227 293 270 161 272 293 273 129 106 65 109
56 99 161 66 160 160 216 222 232 236 262 220 262 232 206 234 273 236 245 261 173 179 174 168 215 249 243 176 165 220 213 233 210 201 202 238 273 157 226 243 158 157 114 109 121
29 125 103 71 84 125 134 131 252 226 255 238 256 211 218 261 243 276 269 262 190 205 190 172 184 234 261 310 62 197 198 193 207 201 214 235 280 282 243 226 181 165 143 120 121
26 70 87 161 166 225 220 178 254 291 243 267 236 233 223 231 232 239 252 271 257 172 119 200 231 202 269 277 245 261 214 187 201 216 230 292 233 270 12 273 216 162 128 119 124
48 8 10 66 298 226 183 186 193 210 251 251 237 317 269 243 251 282 314 258 278 173 177 180 232 199 200 255 245 275 251 217 223 239 253 252 272 290 22 128 145 145 136 130 136
23 5 7 320 226 223 168 165 209 326 229 247 308 310 297 200 292 281 265 272 280 293 208 212 176 203 249 197 270 246 242 239 220 221 240 220 248 123 123 163 159 150 159 159 145
Height
1532 1531 1531 1531 1531 1530 1530 1529 1528 1528 1527 1527 1526 1525 1524 1524 1523 1524 1524 1525 1524 1526 1527 1528 1529 1529 1529 1529 1529 1528 1529 1532 1530 1531 1529 1531 1533 1537 1537 1539 1541 1541 1541 1541 1544
1532 1531 1530 1530 1530 1529 1529 1529 1528 1528 1527 1527 1526 1524 1524 1523 1522 1522 1524 1524 1525 1526 1528 1529 1530 1530 1529 1529 1529 1529 1529 1528 1526 1526 1527 1529 1531 1534 1538 1539 1540 1541 1541 1542 1545
1532 1531 1530 1529 1529 1528 1528 1528 1527 1527 1527 1526 1525 1524 1523 1522 1523 1524 1524 1525 1526 1528 1528 1530 1531 1531 1530 1530 1529 1528 1528 1526 1525 1528 1528 1529 1531 1533 1535 1538 1537 1538 1541 1543 1546
1531 1530 1529 1528 1528 1527 1527 1527 1526 1526 1526 1525 1525 1523 1523 1523 1526 1525 1525 1526 1527 1528 1530 1531 1532 1532 1531 1529 1529 1528 1525 1526 1525 1526 1527 1528 1530 1533 1534 1534 1534 1537 1539 1542 1547
1531 1530 1529 1528 1528 1527 1526 1526 1526 1525 1525 1525 1524 1523 1523 1523 1525 1525 1526 1527 1528 1528 1531 1532 1532 1532 1531 1530 1529 1526 1523 1523 1524 1525 1526 1527 1528 1531 1532 1533 1533 1536 1540 1541 1546
1531 1529 1528 1527 1526 1526 1526 1525 1525 1524 1524 1524 1524 1524 1524 1525 1524 1526 1525 1528 1529 1530 1531 1533 1534 1533 1531 1529 1529 1525 1524 1521 1521 1521 1524 1525 1527 1529 1529 1531 1534 1535 1538 1542 1543
1530 1529 1527 1526 1525 1524 1524 1524 1524 1523 1523 1523 1523 1523 1523 1524 1523 1525 1527 1528 1530 1531 1532 1533 1533 1534 1532 1528 1528 1524 1521 1518 1519 1520 1521 1524 1529 1524 1527 1530 1532 1536 1538 1541 1543
1529 1528 1527 1525 1524 1523 1522 1522 1522 1522 1522 1522 1522 1522 1521 1521 1522 1524 1526 1528 1530 1531 1532 1533 1533 1532 1531 1529 1526 1524 1521 1526 1520 1521 1523 1524 1521 1520 1524 1526 1530 1534 1536 1539 1542
1528 1526 1525 1524 1523 1522 1521 1521 1520 1521 1521 1521 1522 1521 1520 1521 1522 1523 1525 1527 1529 1530 1531 1532 1533 1533 1531 1528 1528 1524 1533 1528 1523 1519 1521 1522 1518 1518 1521 1524 1526 1529 1532 1534 1537
1526 1525 1524 1522 1521 1520 1520 1520 1519 1519 1520 1520 1521 1523 1519 1520 1520 1521 1523 1526 1527 1529 1531 1532 1532 1532 1530 1527 1540 1533 1532 1527 1526 1518 1518 1519 1515 1518 1520 1522 1523 1525 1528 1531 1531
1525 1523 1522 1521 1519 1518 1518 1519 1522 1521 1518 1517 1518 1517 1517 1518 1519 1520 1522 1525 1527 1528 1528 1531 1531 1532 1528 1527 1525 1526 1529 1532 1521 1516 1519 1515 1511 1513 1517 1519 1519 1521 1524 1526 1528
1524 1522 1521 1519 1518 1517 1517 1517 1518 1521 1517 1514 1514 1515 1516 1518 1520 1520 1522 1526 1526 1527 1529 1531 1530 1525 1526 1525 1525 1524 1523 1522 1521 1520 1519 1516 1512 1508 1511 1509 1511 1514 1518 1520 1524
1522 1521 1519 1518 1516 1517 1517 1518 1518 1518 1517 1511 1510 1511 1513 1516 1518 1518 1521 1523 1524 1527 1526 1527 1524 1524 1526 1523 1522 1520 1521 1519 1523 1520 1521 1521 1512 1507 1504 1505 1506 1507 1512 1515 1517
1520 1519 1518 1517 1519 1516 1517 1518 1518 1518 1520 1510 1508 1508 1510 1513 1514 1514 1516 1520 1522 1522 1525 1524 1521 1522 1522 1522 1519 1523 1514 1514 1515 1521 1524 1523 1528 1505 1502 1498 1499 1500 1504 1505 1509
1518 1516 1516 1516 1515 1516 1518 1517 1517 1519 1537 1508 1506 1506 1506 1510 1509 1509 1512 1515 1515 1517 1521 1518 1519 1519 1519 1518 1517 1520 1515 1518 1519 1521 1523 1521 1527 1502 1505 1495 1487 1488 1493 1496 1500
1515 1514 1514 1515 1514 1515 1516 1516 1518 1525 1535 1507 1504 1505 1507 1507 1506 1508 1511 1514 1513 1515 1516 1515 1517 1515 1512 1514 1515 1514 1516 1520 1523 1522 1531 1519 1521 1508 1496 1488 1484 1485 1485 1487 1491
1513 1511 1511 1512 1513 1514 1516 1517 1523 1531 1511 1508 1505 1504 1504 1504 1505 1504 1507 1510 1512 1524 1521 1513 1510 1510 1511 1513 1512 1514 1517 1530 1535 1530 1530 1527 1528 1500 1480 1481 1484 1483 1482 1482 1484
1509 1508 1508 1509 1511 1513 1516 1519 1533 1516 1513 1505 1504 1504 1504 1503 1502 1502 1506 1510 1511 1512 1521 1522 1525 1506 1503 1503 1506 1510 1508 1523 1544 1534 1521 1530 1520 1493 1479 1481 1481 1481 1482 1482 1483
1505 1504 1504 1505 1508 1511 1515 1520 1514 1513 1508 1506 1502 1506 1505 1502 1504 1503 1502 1503 1503 1506 1517 1521 1518 1503 1502 1500 1501 1511 1516 1508 1519 1535 1533 1511 1502 1484 1473 1474 1476 1481 1483 1483 1483
1502 1501 1502 1503 1505 1510 1514 1515 1511 1510 1508 1507 1510 1507 1509 1505 1503 1503 1502 1493 1496 1498 1498 1503 1519 1497 1496 1499 1501 1500 1503 1515 1517 1534 1534 1510 1512 1493 1474 1469 1475 1477 1480 1482 1483
1500 1501 1502 1502 1506 1510 1510 1511 1510 1508 1509 1508 1509 1509 1507 1506 1503 1504 1498 1491 1491 1493 1497 1495 1505 1495 1498 1496 1495 1504 1505 1510 1508 1511 1517 1520 1501 1475 1474 1476 1476 1476 1479 1480 1481
1499 1502 1503 1504 1508 1512 1510 1510 1510 1507 1508 1507 1507 1505 1506 1503 1502 1501 1496 1489 1486 1489 1495 1495 1497 1502 1494 1483 1491 1488 1489 1493 1506 1516 1515 1512 1498 1474 1476 1476 1477 1477 1478 1479 1478
1501 1503 1505 1504 1506 1508 1510 1508 1508 1506 1506 1506 1505 1504 1504 1502 1506 1497 1492 1483 1484 1485 1487 1493 1496 1502 1492 1491 1491 1490 1485 1487 1493 1498 1507 1505 1490 1473 1475 1477 1475 1477 1477 1477 1479
1503 1503 1506 1506 1507 1506 1506 1507 1506 1505 1504 1503 1502 1502 1503 1503 1500 1496 1491 1482 1483 1482 1483 1487 1489 1488 1490 1480 1480 1488 1486 1487 1483 1494 1491 1489 1476 1465 1471 1472 1472 1475 1476 1477 1479
1504 1507 1508 1505 1507 1507 1506 1506 1505 1504 1503 1502 1500 1499 1498 1501 1498 1496 1491 1485 1481 1481 1484 1484 1486 1490 1482 1482 1482 1478 1477 1481 1480 1474 1483 1471 1479 1463 1470 1471 1475 1477 1479 1480 1480
1508 1509 1508 1508 1509 1508 1506 1504 1504 1504 1504 1501 1502 1499 1498 1499 1493 1491 1489 1486 1480 1481 1480 1483 1484 1484 1481 1482 1481 1482 1477 1475 1475 1477 1479 1475 1471 1465 1470 1471 1475 1479 1482 1482 1481
1511 1510 1511 1510 1507 1506 1504 1504 1503 1505 1500 1499 1500 1498 1493 1494 1495 1492 1491 1487 1486 1483 1481 1483 1482 1483 1485 1482 1484 1485 1470 1474 1470 1467 1463 1471 1456 1463 1467 1471 1473 1478 1481 1482 1484